This is the latest recevied weather packets stored in our database for station/object KE5VT. If no packets are shown the sender has not sent any weather packets the latest 10 day(s).
| Time | Temp. | Humidity | Pressure | Rain* | Wind** | Luminosity | Snow |
|---|---|---|---|---|---|---|---|
| 1787674977 | 25.56° C | 53% | 1016.1 hPa | 0 mm | - | 683 W/m² | - |
| 1787674673 | 26.11° C | 53% | 1016 hPa | 0 mm | - | 424 W/m² | - |
| 1787674369 | 26.11° C | 55% | 1016 hPa | 0 mm | - | 383 W/m² | - |
| 1787674064 | 25.56° C | 54% | 1016.2 hPa | 0 mm | - | 536 W/m² | - |
| 1787673764 | 25.56° C | 54% | 1016.3 hPa | 0 mm | - | 669 W/m² | - |
| 1787673462 | 25.56° C | 55% | 1016.3 hPa | 0 mm | - | 573 W/m² | - |
| 1787673157 | 25.56° C | 55% | 1016.3 hPa | 0 mm | - | 658 W/m² | - |
| 1787672857 | 25.56° C | 53% | 1016.3 hPa | 0 mm | - | 651 W/m² | - |
| 1787672554 | 25.56° C | 53% | 1016.4 hPa | 0 mm | - | 619 W/m² | - |
| 1787672251 | 25° C | 54% | 1016.3 hPa | 0 mm | - | 572 W/m² | - |
| 1787671946 | 24.44° C | 55% | 1016.3 hPa | 0 mm | - | 597 W/m² | - |
| 1787671643 | 25° C | 55% | 1016.2 hPa | 0 mm | - | 582 W/m² | - |
| 1787671343 | 24.44° C | 56% | 1016.1 hPa | 0 mm | - | 469 W/m² | - |
| 1787671038 | 24.44° C | 55% | 1016.3 hPa | 0 mm | - | 529 W/m² | - |
| 1787670734 | 23.33° C | 57% | 1016.2 hPa | 0 mm | - | 531 W/m² | - |
| 1787670433 | 23.89° C | 56% | 1016.4 hPa | 0 mm | - | 143 W/m² | - |
| 1787670128 | 23.89° C | 57% | 1016.4 hPa | 0 mm | - | 174 W/m² | - |
| 1787669827 | 23.89° C | 57% | 1016.4 hPa | 0 mm | - | 186 W/m² | - |
| 1787669523 | 23.89° C | 58% | 1016.2 hPa | 0 mm | - | 167 W/m² | - |
| 1787669218 | 23.89° C | 59% | 1016.3 hPa | 0 mm | - | 159 W/m² | - |
| 1787668913 | 23.33° C | 57% | 1016.4 hPa | 0 mm | - | 153 W/m² | - |
| 1787668610 | 23.33° C | 59% | 1016.7 hPa | 0 mm | - | 204 W/m² | - |
| 1787668305 | 23.33° C | 60% | 1016.5 hPa | 0 mm | - | 144 W/m² | - |
| 1787668000 | 23.33° C | 62% | 1016.7 hPa | 0 mm | - | 149 W/m² | - |
| 1787667695 | 23.33° C | 61% | 1016.4 hPa | 0 mm | - | 141 W/m² | - |
* Rain latest hour (hover to see other rain measurements)
** Current wind speed in m/s (hover to see current wind gust speed)